Weather History for Hinckley, MN

Change the Weather History Date:

Tuesday, October 18, 2011

  Actual Average (KJMR) Record (KJMR)
Temperature  
Mean Temperature 44 °F -  
Max Temperature 46 °F 54 °F 80 °F (1953)
Min Temperature 41 °F 28 °F 11 °F (1987)
Degree Days  
Heating Degree Days 22    
Moisture  
Dew Point 33 °F    
Average Humidity 66    
Maximum Humidity 76    
Minimum Humidity 61    
Precipitation  
Precipitation 0.00 in - - ()
Sea Level Pressure  
Sea Level Pressure 29.94 in    
Wind  
Wind Speed 9 mph (NNW)    
Max Wind Speed 15 mph    
Max Gust Speed 21 mph    
Visibility 10 miles    
Events      
Averages and records for this station are not official NWS values.
T = Trace of Precipitation, MM = Missing Value Source: NWS Daily Summary

Daily Weather History Graph

Daily Weather History Graph

Search for Another Location

Airport:

Trip Planner

Search our weather history database for the weather conditions in past years. The results will help you decide how hot, cold, wet, or windy it might be!

Date:

Astronomy

Oct. 18, 2011 Rise Set
Actual Time 7:32 AM CDT 6:20 PM CDT
Civil Twilight 7:01 AM CDT 6:50 PM CDT
Nautical Twilight 6:27 AM CDT 7:25 PM CDT
Astronomical Twilight 5:52 AM CDT 8:00 PM CDT
Moon 10:51 PM CDT (10/18) 1:35 PM CDT (10/18)
Length of Visible Light 11h 48m
Length of Day
10h 48m
Waning Gibbous, 64% of the Moon is Illuminated
Oct 18
Waning Gibbous
Oct 19
Last Quarter
Oct 26
New
Nov 2
First Quarter
Nov 10
Full

Hourly Weather History & Observations

Time (CDT) Temp. Windchill Dew Point Humidity Pressure Visibility Wind Dir Wind Speed Gust Speed Precip Events Conditions
12:15 AM 46.4 °F 42.9 °F 33.8 °F 62% 29.85 in 10.0 mi NNW 6.9 mph - N/A   Overcast
12:35 AM 46.4 °F 43.5 °F 35.6 °F 66% 29.85 in 10.0 mi NNW 5.8 mph - N/A   Overcast
12:55 AM 44.6 °F 39.7 °F 35.6 °F 71% 29.85 in 10.0 mi North 9.2 mph - N/A   Overcast
1:15 AM 44.6 °F 39.2 °F 35.6 °F 71% 29.85 in 10.0 mi North 10.4 mph - N/A   Overcast
1:35 AM 44.6 °F 40.7 °F 35.6 °F 71% 29.86 in 10.0 mi North 6.9 mph 16.1 mph N/A   Overcast
2:15 AM 42.8 °F 37.5 °F 33.8 °F 70% 29.86 in 10.0 mi NNW 9.2 mph - N/A   Scattered Clouds
2:35 AM 42.8 °F 36.6 °F 33.8 °F 70% 29.86 in 10.0 mi North 11.5 mph 17.3 mph N/A   Scattered Clouds
2:55 AM 42.8 °F 36.6 °F 33.8 °F 70% 29.86 in 10.0 mi NNW 11.5 mph - N/A   Scattered Clouds
3:15 AM 42.8 °F 38.0 °F 33.8 °F 70% 29.86 in 10.0 mi NNW 8.1 mph - N/A   Mostly Cloudy
3:35 AM 41.0 °F 37.1 °F 33.8 °F 76% 29.86 in 10.0 mi NNW 5.8 mph - N/A   Mostly Cloudy
3:55 AM 42.8 °F 40.1 °F 33.8 °F 70% 29.86 in 10.0 mi NNW 4.6 mph - N/A   Overcast
4:15 AM 42.8 °F 41.1 °F 33.8 °F 70% 29.87 in 10.0 mi NNW 3.5 mph - N/A   Overcast
4:55 AM 42.8 °F 37.5 °F 33.8 °F 70% 29.88 in 10.0 mi NW 9.2 mph 16.1 mph N/A   Overcast
5:15 AM 42.8 °F 37.5 °F 33.8 °F 70% 29.89 in 10.0 mi NNW 9.2 mph - N/A   Overcast
5:35 AM 42.8 °F 37.5 °F 33.8 °F 70% 29.89 in 10.0 mi NNW 9.2 mph 18.4 mph N/A   Overcast
5:55 AM 42.8 °F 36.6 °F 33.8 °F 70% 29.90 in 10.0 mi NNW 11.5 mph - N/A   Overcast
6:15 AM 42.8 °F 36.6 °F 32.0 °F 66% 29.90 in 10.0 mi NNW 11.5 mph 17.3 mph N/A   Overcast
6:35 AM 42.8 °F 36.6 °F 32.0 °F 66% 29.91 in 10.0 mi NNW 11.5 mph 19.6 mph N/A   Overcast
6:55 AM 42.8 °F 37.5 °F 32.0 °F 66% 29.92 in 10.0 mi NW 9.2 mph - N/A   Overcast
7:15 AM 42.8 °F 36.6 °F 32.0 °F 66% 29.92 in 10.0 mi NW 11.5 mph - N/A   Overcast
7:35 AM 42.8 °F 37.5 °F 32.0 °F 66% 29.93 in 10.0 mi NW 9.2 mph - N/A   Overcast
7:55 AM 41.0 °F 34.7 °F 32.0 °F 70% 29.94 in 10.0 mi NW 10.4 mph - N/A   Overcast
8:15 AM 41.0 °F 33.9 °F 32.0 °F 70% 29.95 in 10.0 mi NW 12.7 mph 16.1 mph N/A   Overcast
8:35 AM 41.0 °F 34.7 °F 32.0 °F 70% 29.96 in 10.0 mi NW 10.4 mph 20.7 mph N/A   Overcast
8:55 AM 42.8 °F 37.5 °F 32.0 °F 66% 29.96 in 10.0 mi NNW 9.2 mph - N/A   Overcast
9:15 AM 42.8 °F 35.8 °F 32.0 °F 66% 29.97 in 10.0 mi North 13.8 mph - N/A   Overcast
9:35 AM 42.8 °F 37.0 °F 32.0 °F 66% 29.97 in 10.0 mi NNW 10.4 mph - N/A   Overcast
9:55 AM 42.8 °F 36.2 °F 32.0 °F 66% 29.97 in 10.0 mi North 12.7 mph 17.3 mph N/A   Mostly Cloudy
10:15 AM 44.6 °F 38.4 °F 32.0 °F 61% 29.98 in 10.0 mi NNW 12.7 mph 17.3 mph N/A   Mostly Cloudy
10:35 AM 42.8 °F 35.8 °F 32.0 °F 66% 29.98 in 10.0 mi NW 13.8 mph - N/A   Overcast
10:55 AM 44.6 °F 38.1 °F 32.0 °F 61% 29.98 in 10.0 mi NW 13.8 mph - N/A   Overcast
11:15 AM 42.8 °F 37.0 °F 33.8 °F 70% 29.99 in 10.0 mi North 10.4 mph - N/A   Overcast
11:35 AM 42.8 °F 36.2 °F 33.8 °F 70% 29.99 in 10.0 mi NNW 12.7 mph 17.3 mph N/A   Overcast
11:55 AM 44.6 °F 37.8 °F 33.8 °F 66% 29.99 in 10.0 mi North 15.0 mph 20.7 mph N/A   Overcast
12:15 PM 44.6 °F 38.8 °F 32.0 °F 61% 29.98 in 10.0 mi NNW 11.5 mph 17.3 mph N/A   Overcast
12:35 PM 44.6 °F 39.2 °F 32.0 °F 61% 29.98 in 10.0 mi NNW 10.4 mph 16.1 mph N/A   Overcast
12:55 PM 44.6 °F 39.7 °F 32.0 °F 61% 29.98 in 10.0 mi North 9.2 mph 17.3 mph N/A   Overcast
1:15 PM 44.6 °F 38.8 °F 32.0 °F 61% 29.98 in 10.0 mi North 11.5 mph 17.3 mph N/A   Overcast
1:35 PM 44.6 °F 39.7 °F 32.0 °F 61% 29.98 in 10.0 mi NNW 9.2 mph 16.1 mph N/A   Overcast
1:55 PM 44.6 °F 38.4 °F 32.0 °F 61% 29.98 in 10.0 mi NNW 12.7 mph - N/A   Overcast
2:15 PM 44.6 °F 37.8 °F 33.8 °F 66% 29.98 in 10.0 mi NNW 15.0 mph 18.4 mph N/A   Overcast
2:35 PM 44.6 °F 39.2 °F 33.8 °F 66% 29.98 in 10.0 mi NNW 10.4 mph 17.3 mph N/A   Overcast
2:55 PM 44.6 °F 40.2 °F 32.0 °F 61% 29.98 in 10.0 mi NW 8.1 mph - N/A   Overcast
3:15 PM 44.6 °F 38.8 °F 32.0 °F 61% 29.97 in 10.0 mi NW 11.5 mph 16.1 mph N/A   Overcast
3:35 PM 44.6 °F 38.8 °F 33.8 °F 66% 29.97 in 10.0 mi NW 11.5 mph - N/A   Overcast
3:55 PM 44.6 °F 38.8 °F 32.0 °F 61% 29.98 in 10.0 mi NNW 11.5 mph 16.1 mph N/A   Overcast
4:15 PM 44.6 °F 40.2 °F 32.0 °F 61% 29.98 in 10.0 mi NNW 8.1 mph 17.3 mph N/A   Overcast
4:35 PM 44.6 °F 39.7 °F 32.0 °F 61% 29.99 in 10.0 mi NNW 9.2 mph 18.4 mph N/A   Overcast
4:55 PM 44.6 °F 38.8 °F 32.0 °F 61% 29.99 in 10.0 mi NNW 11.5 mph 16.1 mph N/A   Overcast
5:15 PM 44.6 °F 40.7 °F 33.8 °F 66% 29.99 in 10.0 mi North 6.9 mph - N/A   Overcast
5:35 PM 44.6 °F 41.4 °F 32.0 °F 61% 30.00 in 10.0 mi NNW 5.8 mph - N/A   Overcast
5:55 PM 44.6 °F 38.4 °F 32.0 °F 61% 30.00 in 10.0 mi North 12.7 mph - N/A   Overcast
6:15 PM 42.8 °F 37.0 °F 32.0 °F 66% 30.01 in 10.0 mi North 10.4 mph 17.3 mph N/A   Overcast
6:35 PM 42.8 °F 38.6 °F 32.0 °F 66% 30.02 in 10.0 mi North 6.9 mph - N/A   Overcast
6:55 PM 42.8 °F 38.0 °F 32.0 °F 66% 30.02 in 10.0 mi North 8.1 mph - N/A   Overcast
7:15 PM 42.8 °F 36.6 °F 32.0 °F 66% 30.03 in 10.0 mi North 11.5 mph 17.3 mph N/A   Overcast
7:35 PM 42.8 °F 38.6 °F 32.0 °F 66% 30.04 in 10.0 mi North 6.9 mph - N/A   Overcast
7:55 PM 42.8 °F 38.6 °F 32.0 °F 66% 30.05 in 10.0 mi North 6.9 mph - N/A   Overcast
8:15 PM 42.8 °F 37.5 °F 33.8 °F 70% 30.05 in 10.0 mi North 9.2 mph - N/A   Overcast
8:35 PM 41.0 °F 34.3 °F 33.8 °F 76% 30.05 in 10.0 mi North 11.5 mph 20.7 mph N/A   Overcast
8:55 PM 41.0 °F 35.8 °F 33.8 °F 76% 30.06 in 10.0 mi North 8.1 mph - N/A   Overcast
9:15 PM 41.0 °F 36.4 °F 33.8 °F 76% 30.06 in 10.0 mi North 6.9 mph - N/A   Overcast
9:55 PM 41.0 °F 34.7 °F 32.0 °F 70% 30.06 in 10.0 mi North 10.4 mph - N/A   Overcast
10:15 PM 41.0 °F 34.7 °F 32.0 °F 70% 30.06 in 10.0 mi North 10.4 mph 17.3 mph N/A   Overcast
10:35 PM 41.0 °F 35.8 °F 32.0 °F 70% 30.06 in 10.0 mi North 8.1 mph - N/A   Overcast
10:55 PM 41.0 °F 35.8 °F 32.0 °F 70% 30.06 in 10.0 mi North 8.1 mph - N/A   Overcast
11:15 PM 41.0 °F 35.8 °F 32.0 °F 70% 30.06 in 10.0 mi North 8.1 mph - N/A   Overcast
11:35 PM 39.2 °F 33.0 °F 32.0 °F 75% 30.06 in 10.0 mi North 9.2 mph - N/A   Overcast
11:55 PM 39.2 °F 34.2 °F 32.0 °F 75% 30.06 in 10.0 mi North 6.9 mph - N/A   Overcast